OBJECT B, 56744

Orbit data source: Space-Track

You're viewing an Uncataloged Satellite

Recently launched and/or uncataloged satellites may have evolving metadata. Metadata may include but not limited to: Owner, Maufacturer, Bus, Motor, and Mission.

OBJECT B, 56744 is a satellite owned by KASI (KR) in SSO that was launched on Thu, 25 May 2023 UTC via an NURI launch vehicle from the Naro Space Center, South Korea (NSC). Unknown objects in Earth's orbit typically refer to objects detected orbiting the Earth but have not yet been identified or cataloged. These objects could be anything from previously untracked satellites, spent rocket stages, debris from satellite collisions, or even natural meteoroids temporarily captured by Earth's gravity.

Loading next visibility...
Identifier
56744, 2023-072B
Orbit
SSO
Country
Flag of UnknownUnknown / SKOR
Related business
Flag of KRKorea Astronomy and Space Science Institute (KR)
Manufacturer
KASI
Mission
Operational Civil Ast/Sci
Bus & Motor
CUBESAT 6U, Unknown motor
Mass
10 kg wet, 10 kg dry
Launch date (UTC)
2023-05-25 (3 years ago)
Launch vehicle
NURI
Launch site
Naro Space Center, South Korea (NSC)
Object type
Unknown
Shape & HBR
Box + 2 Pan, 0.3 m
Radar Cross Section
0.054 m², Medium (>0.1 m² and < 1m²)

Expand to show TLE details & history
Last TLE update: 15 hours ago

TLE from 15 hours ago
0 OBJECT B
1 56744U 23072B   26034.58633932  .00023058  00000-0  64605-3 0  9996
2 56744  97.5357 236.7930 0007231  82.5268 277.6797 15.36594877149552
Epoch: 2026-02-03T14:04Z
TLE epoch observation values (Epoch: 2026-02-03T14:04:19.717Z)
Latitude
-0.00002°
Longitude
-108.0543°
Altitude
458.639 km
Speed
7.638 km/s
True Right ascension
15h 47m 10s
True Declination
0° 00' 00"
Sunlit
Object was in daylight at epoch
Visualization orbit readout
Latitude
Unknown
Longitude
Unknown
Altitude
Unknown
Speed
Unknown
Apparent Right ascension
Unknown
Apparent Declination
Unknown
Sunlit
N/A
Visualization observer readout
Local Sidereal Time
07:14:11
Azimuth
Unknown
Elevation
Unknown
Doppler factor
Unknown
Orbital elements
Apogee altitude
458.076 km
Perigee altitude
448.197 km
Semi-major axis
6,831.274 km
Eccentricity
0.00072
Inclination
97.5357°
RAAN
236.793°
Arg. of periapsis
82.5268°
True anomaly
277.59757°
Mean anomaly
277.6797°
Eccentric anomaly
277.63864°
Mean motion
3.84406 °/min
Orbital period
93.65 mins
BSTAR
0.00064605
Loading maneuver chart data...
Computing Atmospheric mass density...
Loading historical data...
Loading historical data...
Loading historical data...
Loading historical data...
Loading historical data...
Loading historical data...
Loading historical data...

Documentation

Showing up to 5 results
|